Starlink 30321

operational
NORAD ID: 57679 Int'l Des: 2023-124 Owner: SPXS Country: US Constellation: starlink
LEOCIRCULAR

Starlink 30321について

説明を読み込み中...

リアルタイム位置

3D地球を読み込み中...

次回通過

高度履歴

Altitude vs Time

uPlot chart will show altitude changes over time

軌道要素

1 57679U 23124S 26035.13461881 .00002586 00000-0 99443-4 0 9998
2 57679 53.1624 2.4570 0001389 70.5007 289.6144 15.30186165138434
Epoch: Feb 4, 2026 • Age: 25 hours

現在のステータス

高度 476.9 km
速度 7.63 km/s
衛星直下点 -5.60°S, 153.86°E
打ち上げ日 Aug 22, 2023
運用期間 2.4 years
タイプ internet

技術仕様

分類 Payload
質量 730.00 kg
乾燥質量 700.00 kg
総質量 730.00 kg
長さ 0.30 m
直径 4.10 m
スパン 29.00 m
形状 Box + pan
製造者 SPXS
バスタイプ Starlink V2M
フェーズステータス In Orbit
所有者/国 SPXS/US

大規模コンステレーション

Loading constellations...